Change the Weather History Date:

Sunday, December 29, 2013

  Actual Average Record
Temperature  
Mean Temperature 71 °F 72 °F  
Max Temperature 78 °F 79 °F 86 °F (1995)
Min Temperature 63 °F 64 °F 59 °F (1999)
Degree Days  
Heating Degree Days 0 0  
Month to date heating degree days 0 0  
Since 1 July heating degree days 0 0  
Cooling Degree Days 6 7  
Month to date cooling degree days 231 212  
Year to date cooling degree days 3507 3219  
Growing Degree Days 20 (Base 50)    
Moisture  
Dew Point 70 °F    
Average Humidity 91    
Maximum Humidity 100    
Minimum Humidity 82    
Precipitation  
Precipitation 1.45 in 0.31 in 3.53 in (1951)
Month to date precipitation 10.89 10.93  
Year to date precipitation 92.87 126.08  
Snow  
Snow 0.00 in - - ()
Month to date snowfall 0.0  
Since 1 July snowfall 0.0  
Snow Depth 0.00 in    
Sea Level Pressure  
Sea Level Pressure 29.93 in    
Wind  
Wind Speed 7 mph (North)    
Max Wind Speed 18 mph    
Max Gust Speed 24 mph    
Visibility 9 miles    
Events Rain , Thunderstorm    
T = Trace of Precipitation, MM = Missing Value Source: NWS Daily Summary

Daily Weather History Graph

Daily Weather History Graph

Search for Another Location

Airport or City:

Trip Planner

Search our weather history database for the weather conditions in past years. The results will help you decide how hot, cold, wet, or windy it might be!

Date:

Astronomy

Dec. 29, 2013 Rise Set
Actual Time 6:53 AM HST 5:51 PM HST
Civil Twilight 6:29 AM HST 6:15 PM HST
Nautical Twilight 6:02 AM HST 6:42 PM HST
Astronomical Twilight 5:35 AM HST 7:09 PM HST
Moon 3:59 AM HST (12/29) 3:30 PM HST (12/29)
Length of Visible Light 11h 45m
Length of Day
10h 57m
Waning Crescent, 9% of the Moon is Illuminated
Dec 29
Waning Crescent
Jan 1
New
Jan 7
First Quarter
Jan 15
Full
Jan 23
Last Quarter

Hourly Weather History & Observations

Time (HST) Temp. Dew Point Humidity Pressure Visibility Wind Dir Wind Speed Gust Speed Precip Events Conditions
12:53 AM 64.9 °F 64.9 °F 100% 29.90 in 10.0 mi Calm Calm - N/A   Clear
1:53 AM 64.0 °F 62.1 °F 93% 29.88 in 10.0 mi Calm Calm - N/A   Clear
2:53 AM 63.0 °F 63.0 °F 100% 29.89 in 10.0 mi Calm Calm - N/A   Partly Cloudy
3:53 AM 66.0 °F 64.9 °F 96% 29.88 in 10.0 mi WSW 5.8 mph - N/A   Overcast
4:53 AM 66.0 °F 64.9 °F 96% 29.89 in 10.0 mi SSW 4.6 mph - N/A   Scattered Clouds
5:53 AM 66.0 °F 63.0 °F 90% 29.91 in 10.0 mi SSW 5.8 mph - N/A   Clear
6:53 AM 66.0 °F 63.0 °F 90% 29.93 in 10.0 mi SSW 4.6 mph - N/A   Mostly Cloudy
7:53 AM 66.9 °F 64.9 °F 93% 29.96 in 10.0 mi West 4.6 mph - N/A   Mostly Cloudy
8:53 AM 70.0 °F 68.0 °F 93% 29.98 in 10.0 mi Calm Calm - N/A   Mostly Cloudy
9:53 AM 73.0 °F 70.0 °F 90% 29.98 in 10.0 mi North 4.6 mph - N/A   Overcast
10:53 AM 72.0 °F 70.0 °F 93% 29.96 in 10.0 mi North 5.8 mph - 0.01 in Rain Light Rain
11:05 AM 72.0 °F 70.0 °F 93% 29.97 in 10.0 mi North 8.1 mph - 0.00 in Rain , Thunderstorm Light Rain
11:25 AM 73.0 °F 70.0 °F 90% 29.97 in 5.0 mi Calm Calm - 0.00 in Rain , Thunderstorm Light Thunderstorms and Rain
11:36 AM 72.0 °F 71.1 °F 97% 29.95 in 2.5 mi South 4.6 mph - 0.03 in Rain , Thunderstorm Light Thunderstorms and Rain
11:53 AM 72.0 °F 71.1 °F 97% 29.95 in 6.0 mi West 5.8 mph - 0.05 in Rain , Thunderstorm Light Rain
12:17 PM 73.9 °F 72.0 °F 93% 29.94 in 10.0 mi SSW 3.5 mph - 0.00 in   Overcast
12:40 PM 78.1 °F 71.1 °F 79% 29.92 in 10.0 mi North 9.2 mph - 0.00 in Thunderstorm Mostly Cloudy
12:53 PM 77.0 °F 72.0 °F 84% 29.91 in 10.0 mi NNW 8.1 mph - 0.00 in Thunderstorm Mostly Cloudy
1:34 PM 77.0 °F 73.0 °F 88% 29.89 in 10.0 mi North 10.4 mph - N/A   Mostly Cloudy
1:53 PM 75.9 °F 73.0 °F 91% 29.88 in 10.0 mi North 10.4 mph - N/A   Mostly Cloudy
1:55 PM 75.9 °F 73.0 °F 91% 29.88 in 10.0 mi North 10.4 mph - N/A   Mostly Cloudy
2:09 PM 75.0 °F 71.1 °F 87% 29.89 in 10.0 mi North 15.0 mph - N/A   Mostly Cloudy
2:53 PM 73.0 °F 68.0 °F 84% 29.88 in 10.0 mi North 12.7 mph - 0.00 in Rain Light Rain
3:53 PM 73.9 °F 71.1 °F 91% 29.88 in 10.0 mi North 13.8 mph - 0.00 in   Mostly Cloudy
4:06 PM 73.9 °F 72.0 °F 93% 29.88 in 10.0 mi North 12.7 mph 20.7 mph N/A   Mostly Cloudy
4:29 PM 75.0 °F 72.0 °F 90% 29.89 in 10.0 mi North 8.1 mph - N/A   Mostly Cloudy
4:40 PM 75.0 °F 71.1 °F 87% 29.89 in 10.0 mi North 9.2 mph - N/A   Mostly Cloudy
4:53 PM 75.0 °F 71.1 °F 87% 29.89 in 10.0 mi North 10.4 mph - N/A   Mostly Cloudy
5:27 PM 73.0 °F 72.0 °F 96% 29.90 in 8.0 mi NNW 11.5 mph 23.0 mph 0.00 in Rain Light Rain
5:53 PM 73.0 °F 71.1 °F 93% 29.91 in 10.0 mi North 13.8 mph 20.7 mph 0.00 in Rain Light Rain
6:05 PM 73.0 °F 71.1 °F 93% 29.92 in 10.0 mi North 16.1 mph 23.0 mph 0.00 in   Overcast
6:25 PM 73.0 °F 71.1 °F 93% 29.92 in 10.0 mi North 12.7 mph - 0.00 in Rain Light Rain
6:44 PM 73.0 °F 72.0 °F 96% 29.93 in 10.0 mi North 8.1 mph 19.6 mph 0.00 in   Overcast
6:53 PM 73.0 °F 72.0 °F 96% 29.93 in 10.0 mi North 10.4 mph - 0.00 in   Overcast
7:17 PM 72.0 °F 71.1 °F 97% 29.94 in 9.0 mi NNW 11.5 mph - 0.02 in Rain Light Rain
7:27 PM 72.0 °F 72.0 °F 100% 29.94 in 10.0 mi North 15.0 mph - 0.02 in Rain Light Rain
7:31 PM 72.0 °F 72.0 °F 100% 29.95 in 10.0 mi North 12.7 mph - 0.02 in Rain Light Rain
7:42 PM 72.0 °F 72.0 °F 100% 29.95 in 8.0 mi North 10.4 mph - 0.02 in Rain Light Rain
7:53 PM 72.0 °F 72.0 °F 100% 29.95 in 10.0 mi North 10.4 mph - 0.02 in Rain Light Rain
8:11 PM 73.0 °F 72.0 °F 96% 29.95 in 10.0 mi NNE 11.5 mph - 0.00 in   Overcast
8:19 PM 73.0 °F 71.1 °F 93% 29.95 in 10.0 mi NNE 12.7 mph - 0.00 in   Overcast
8:33 PM 73.0 °F 72.0 °F 96% 29.96 in 10.0 mi North 10.4 mph - 0.00 in   Overcast
8:51 PM 73.4 °F 71.6 °F 94% 29.95 in 10.0 mi NNE 9.2 mph - 0.00 in   Overcast
8:53 PM 73.0 °F 71.1 °F 93% 29.95 in 10.0 mi NNE 8.1 mph - 0.00 in   Overcast
9:00 PM 73.9 °F 71.1 °F 91% 29.95 in 10.0 mi NNE 10.4 mph 19.6 mph N/A   Overcast
9:41 PM 73.4 °F 71.6 °F 94% 29.95 in 10.0 mi NNE 13.8 mph 23.0 mph N/A Thunderstorm Thunderstorm
9:48 PM 73.4 °F 71.6 °F 94% 29.95 in 10.0 mi NNE 15.0 mph - N/A Thunderstorm Thunderstorm
9:53 PM 73.4 °F 71.6 °F 94% 29.95 in 10.0 mi North 13.8 mph - N/A Thunderstorm Thunderstorm
10:01 PM 73.0 °F 72.0 °F 96% 29.96 in 10.0 mi NNE 11.5 mph 20.7 mph 0.00 in Rain Light Rain
10:12 PM 72.0 °F 72.0 °F 100% 29.97 in 4.0 mi North 10.4 mph - 0.07 in Rain , Thunderstorm Thunderstorms and Rain
10:20 PM 72.0 °F 72.0 °F 100% 29.96 in 4.0 mi NNE 12.7 mph - 0.15 in Rain , Thunderstorm Thunderstorms and Rain
10:38 PM 72.0 °F 72.0 °F 100% 29.96 in 4.0 mi North 10.4 mph - 0.20 in Rain , Thunderstorm Thunderstorms and Rain
10:46 PM 72.0 °F 72.0 °F 100% 29.96 in 4.0 mi North 10.4 mph - 0.21 in Rain , Thunderstorm Thunderstorms and Rain
10:53 PM 72.0 °F 72.0 °F 100% 29.96 in 4.0 mi North 11.5 mph - 0.24 in Rain , Thunderstorm Thunderstorms and Rain
11:03 PM 72.0 °F 72.0 °F 100% 29.95 in 5.0 mi North 11.5 mph - 0.04 in Rain , Thunderstorm Thunderstorms and Rain
11:20 PM 72.0 °F 72.0 °F 100% 29.95 in 7.0 mi North 13.8 mph - 0.11 in Rain , Thunderstorm Thunderstorms and Rain
11:34 PM 72.0 °F 72.0 °F 100% 29.96 in 1.8 mi NNE 10.4 mph - 0.24 in Rain , Thunderstorm Thunderstorms and Rain
11:53 PM 71.1 °F 71.1 °F 100% 29.95 in 1.2 mi NE 9.2 mph 19.6 mph 1.04 in Rain , Thunderstorm Thunderstorms and Rain
11:59 PM 71.1 °F 71.1 °F 100% 29.95 in 3.0 mi NNE 5.8 mph - 0.09 in Rain , Thunderstorm Thunderstorms and Rain